Location: Albany
(35.0170°S, 117.8920°E)
Time: 23:03:50
(UTC+08:00)

Transit 2A - Pass Details

Date: 28 January 2021
Orbit: 601 x 958 km, 66.7° (Epoch: 06 March)

Event Time Altitude Azimuth Distance (km) Brightness Sun altitude
Rises 13:58:50 0° 354° (N) 2,925 9.2 62.6°
Reaches altitude 10° 14:01:07 10° 2° (N) 2,063 8.6 62.2°
Maximum altitude 14:05:28 39° 71° (ENE) 1,043 7.0 61.4°
Drops below altitude 10° 14:10:15 10° 138° (SE) 2,283 8.3 60.5°
Sets 14:12:53 0° 145° (SE) 3,279 9.0 60.1°
